Lid_Strength_Index
15 14 14 15 15 16 18 16 19 18 18 15 14 15 14 14 13 14 14 14 14 14 13 13 12 11 11 12 12 12 12 12 11 11 10 10 10 10 9 9 8 7 7 5
19 14 14 16 14 18 20 15 16 16 17 13 12 13 14 14 14 14 14 14 14 14 14 14 13 13 12 13 13 13 13 13 12 12 12 12 12 11 10 11 10 10 10 10
21 16 17 18 17 16 15 14 15 20 15 13 14 13 14 14 13 14 14 14 14 15 15 15 15 14 14 14 13 13 14 13 14 14 13 13 13 13 13 12 12 12 11 12
17 19 22 17 13 14 15 14 13 13 13 13 12 12 13 13 14 14 14 15 15 16 16 16 15 15 14 14 15 15 15 15 15 15 15 15 14 14 14 13 14 13 13 13
19 17 17 16 13 14 15 16 13 14 12 12 11 11 13 13 13 14 14 14 15 15 15 16 16 16 16 16 16 17 16 16 16 15 15 15 15 15 14 14 14 14 14 14
22 18 23 15 12 11 12 18 12 12 13 14 14 17 16 13 11 12 13 13 13 13 14 16 16 16 16 17 17 18 17 17 16 16 16 15 15 15 15 15 15 14 15 15
24 18 16 12 11 11 18 15 12 12 12 13 14 13 12 12 13 12 13 14 14 14 15 16 15 15 15 16 17 17 17 16 16 16 16 15 15 15 15 14 15 15 15 15
19 18 21 11 12 14 12 12 12 12 12 12 13 13 12 13 13 14 15 15 15 15 16 16 16 16 16 17 16 16 16 15 15 15 14 13 12 13 13 12 13 13 13 13
17 17 12 11 12 10 10 11 11 12 12 12 13 13 13 13 14 14 15 16 16 17 17 17 18 17 17 17 17 17 15 15 15 14 14 13 13 13 13 13 13 14 14 15
19 17 14 12 12 11 10 11 11 11 11 11 12 12 13 13 14 14 16 17 18 16 18 20 20 18 19 18 19 18 18 17 15 15 15 14 13 13 13 13 14 14 14 15
19 16 16 14 13 12 11 11 12 11 11 11 12 12 13 13 13 14 16 19 19 16 21 22 22 22 22 21 20 19 18 17 16 16 15 14 13 14 13 13 14 15 15 15
19 16 15 15 14 12 12 12 12 12 13 13 13 13 14 16 17 18 19 21 22 19 23 24 25 25 23 23 22 21 17 17 16 15 14 14 14 14 12 12 12 13 12 14
16 17 16 16 18 14 12 13 14 14 15 15 17 18 18 19 21 21 23 24 25 24 25 26 26 24 25 24 24 22 20 19 15 15 14 14 14 15 16 15 13 14 13 14
16 16 17 18 15 16 15 16 19 21 22 19 19 23 23 23 24 25 24 25 26 27 27 28 28 26 27 26 26 22 19 22 16 14 15 15 15 15 16 17 18 19 17 15
16 16 16 19 21 22 24 23 23 20 22 24 27 24 26 25 26 26 28 29 28 29 29 29 28 26 29 28 26 21 15 21 20 15 15 15 15 16 17 18 19 21 21 17
17 20 23 20 17 21 23 26 20 20 27 27 26 26 25 28 29 30 31 31 25 25 27 29 29 28 30 30 23 17 16 18 24 16 16 17 16 17 17 20 23 23 22 19
21 22 24 24 20 20 20 18 16 18 24 24 23 28 29 30 32 32 30 31 30 29 28 27 26 30 31 30 29 18 16 16 20 17 21 27 18 17 18 20 27 28 27 19
15 18 15 19 16 18 22 21 21 22 22 22 26 28 30 29 24 26 27 31 32 31 30 27 29 30 30 30 30 21 17 22 26 25 19 26 27 28 23 22 28 29 29 27
18 18 18 18 18 17 18 20 22 22 26 25 27 26 27 28 30 30 30 28 27 27 24 28 24 27 29 29 28 29 27 27 28 28 28 27 28 29 29 29 29 30 30 29
20 22 20 21 23 19 20 22 21 24 27 28 31 30 30 30 30 30 30 26 24 24 27 27 30 30 30 30 26 29 28 28 28 29 29 29 29 29 30 28 30 30 30 30
20 21 21 22 24 31 24 24 23 25 30 30 28 28 28 30 29 30 31 27 25 30 31 29 30 30 30 30 29 30 30 29 29 29 29 29 29 30 29 30 30 29 30 29
23 21 23 25 26 30 34 32 28 28 30 31 33 32 29 24 24 31 31 26 29 28 30 30 30 29 30 27 29 30 30 30 30 30 30 30 30 29 30 30 30 30 30 30
23 23 25 25 25 26 33 32 32 29 29 30 30 30 26 24 27 27 27 26 28 27 27 27 27 25 24 29 30 30 30 30 30 30 31 31 30 31 31 30 30 30 30 30
26 24 26 28 28 28 29 33 34 35 33 31 31 30 28 28 30 30 30 27 26 23 27 26 24 22 28 30 30 30 31 31 31 32 31 29 32 32 32 31 30 31 31 30
26 27 27 27 26 26 29 31 32 34 33 33 33 31 31 31 25 25 27 27 23 25 25 23 21 22 29 31 31 31 31 32 32 33 32 32 32 32 33 32 32 31 31 31
26 25 26 26 27 27 29 29 28 31 31 32 34 32 32 31 30 27 27 26 25 25 25 25 26 27 28 29 29 29 29 29 29 31 31 32 32 32 32 31 31 30 31 31
28 28 28 30 32 28 28 28 28 29 28 28 28 29 28 29 29 28 27 27 27 26 26 26 26 27 28 28 29 28 29 30 29 29 32 32 32 31 30 30 30 30 31 31